Temp
23 22 22 22 22 21 21 21 21 21 21 21 21 20 20 20 19 19 19 19 19 19 20 20 20 20 20 19 20 20 20 20
23 22 21 21 21 21 21 21 21 21 21 21 21 20 20 20 20 20 20 20 20 20 20 20 20 20 20 19 20 20 20 20
23 22 21 21 21 21 21 21 21 21 21 21 21 21 20 20 21 21 20 20 20 20 20 20 20 20 20 20 20 20 20 20
22 22 21 21 21 21 21 21 21 21 21 21 21 20 21 20 20 20 20 20 20 20 20 20 20 20 20 20 20 20 20 20
21 22 21 21 21 21 20 21 21 20 20 21 21 20 20 20 20 20 20 20 20 20 20 20 20 20 20 20 20 20 20 20
22 21 21 21 21 21 21 20 20 20 20 20 20 20 20 20 21 20 20 21 20 20 20 20 19 19 19 20 20 20 20 20
21 21 21 21 21 21 20 20 20 21 21 21 20 20 20 20 21 20 20 20 20 20 20 19 19 19 20 20 20 19 19 19
21 22 21 21 20 20 21 20 21 21 21 21 21 20 20 20 20 20 20 20 20 19 19 19 19 19 19 19 19 18 19 19
22 22 22 21 20 20 20 21 21 20 21 21 20 20 20 20 20 20 20 20 19 19 19 19 19 19 19 19 19 19 18 18
22 21 21 21 21 20 20 21 21 20 21 21 20 20 20 20 21 20 20 19 19 19 19 19 19 19 19 18 18 18 18 17
21 21 21 21 20 20 20 20 20 21 21 21 20 20 20 20 21 20 20 19 19 19 19 19 19 18 18 17 18 17 17 16
22 21 20 20 20 20 20 21 20 21 21 21 21 20 20 20 20 20 19 19 18 19 19 18 18 18 17 17 17 16 16 16
22 21 20 19 19 20 19 20 20 20 21 20 21 20 20 20 20 19 19 19 19 19 19 17 17 17 17 16 16 15 15 15
21 21 20 19 19 19 19 19 20 20 20 20 20 20 20 20 19 18 19 18 18 18 18 17 15 15 15 13 10 13 14 14
21 21 20 19 19 19 19 18 19 19 20 19 20 20 19 19 19 19 18 18 18 18 18 17 15 14 14 14 10 10 10 13
22 20 19 19 19 18 18 19 18 19 18 18 19 19 18 18 19 19 18 18 18 17 16 16 16 14 13 13 13 12 9 8
22 20 19 19 18 18 18 19 18 18 17 18 18 18 18 18 19 18 17 17 17 16 15 15 14 14 13 12 12 11 11 8
21 20 19 18 18 18 18 19 18 16 16 17 17 18 18 18 18 18 17 16 16 15 15 14 13 13 12 11 11 10 9 9
21 20 19 18 18 18 18 18 18 17 16 16 16 17 17 17 17 17 16 16 15 15 14 13 12 12 11 11 10 10 10 9
21 20 20 18 18 18 18 18 17 17 17 16 16 16 16 16 16 16 15 15 14 14 13 12 12 11 11 10 10 10 9 9
Height
801 805 809 813 816 817 818 819 822 824 826 828 830 831 832 833 834 835 836 836 836 837 837 837 838 838 838 837 837 837 837 837
800 804 808 812 815 818 820 821 821 823 826 828 829 831 832 833 834 834 836 836 837 837 837 838 837 837 837 837 837 837 837 837
799 803 807 810 813 816 819 822 823 824 825 826 828 829 831 832 833 834 835 836 837 837 838 838 838 838 838 838 838 837 837 837
798 801 804 808 811 814 817 820 822 823 824 825 826 828 830 831 833 834 835 836 837 837 838 838 838 838 838 838 838 838 837 837
796 799 803 805 808 811 814 817 819 822 824 825 826 827 828 830 831 833 834 835 836 837 837 837 838 838 838 838 838 837 837 837
791 797 799 803 805 808 811 814 817 819 821 824 825 826 827 828 829 831 833 834 835 836 837 837 837 837 837 837 837 837 837 837
787 791 795 798 802 805 807 809 812 816 818 820 822 824 824 826 827 829 831 832 834 834 836 836 837 837 837 837 837 836 835 835
783 786 790 794 797 800 803 806 809 811 814 816 818 820 822 824 826 827 828 830 833 833 835 836 837 836 836 836 835 836 835 835
773 776 782 787 790 795 798 800 805 807 809 812 814 817 820 822 823 825 826 828 831 833 833 835 835 835 834 834 834 834 834 833
768 772 772 778 781 787 791 795 799 802 805 808 810 813 816 819 821 822 824 826 828 829 830 832 833 833 833 834 835 833 833 832
760 764 767 771 776 780 785 791 795 798 801 804 807 809 812 815 817 819 822 823 824 826 828 830 831 832 832 833 833 832 832 832
749 755 761 768 773 777 781 784 789 793 796 799 803 806 808 810 813 816 818 820 822 824 825 827 828 829 830 830 830 830 831 831
744 749 754 760 765 770 774 774 780 786 790 794 798 801 804 806 807 811 814 817 820 821 823 825 826 826 826 828 829 830 830 831
738 742 747 751 756 760 769 773 775 780 786 788 793 797 799 802 804 807 810 813 816 818 820 822 824 825 825 828 832 830 829 828
729 732 736 743 750 758 764 771 775 778 780 782 786 791 794 797 801 803 807 810 812 814 817 818 820 823 824 826 832 834 830 826
718 723 728 735 742 748 750 752 759 763 768 773 780 786 790 793 796 799 803 805 808 812 815 816 816 819 823 825 826 828 831 829
709 716 722 725 730 736 742 748 754 758 763 769 775 782 786 790 792 795 799 802 804 807 811 814 816 818 820 822 823 825 826 828
704 710 712 718 723 729 733 738 745 750 758 762 767 775 783 787 790 791 794 798 801 804 807 810 813 816 818 820 821 822 824 825
694 701 705 711 717 722 724 729 733 739 746 752 760 767 775 781 786 788 790 793 798 801 803 807 810 813 816 818 819 820 820 821
682 689 696 701 707 713 720 726 729 735 739 744 753 760 766 777 782 786 788 790 794 797 800 803 805 809 812 815 817 817 817 817
Wind_Speed
31 29 26 25 24 23 22 21 20 18 16 14 11 10 9 9 7 5 4 3 2 1 1 2 3 4 6 8 7 8 10 12
31 29 28 26 24 23 21 21 20 18 16 14 12 10 9 8 6 5 4 3 3 1 0 1 3 3 6 8 9 9 11 14
31 30 29 28 26 24 22 20 19 18 17 15 13 11 9 8 6 5 3 3 3 2 1 1 2 5 4 6 7 9 11 13
34 32 31 29 28 26 24 23 21 20 18 16 14 12 10 8 6 5 4 4 4 3 2 1 1 4 4 3 6 8 10 11
36 34 32 31 31 29 26 25 23 21 18 17 15 14 13 11 9 9 6 6 5 5 4 3 2 1 3 1 7 7 7 9
37 35 34 32 31 31 29 27 25 23 21 18 17 16 15 13 12 12 10 8 6 7 6 5 4 3 2 4 5 7 8 9
36 38 36 35 32 32 31 30 28 25 22 20 20 20 19 17 15 14 13 12 10 6 6 4 4 3 5 4 3 7 8 8
35 38 38 37 35 34 34 32 30 27 25 24 23 22 19 20 17 16 15 12 12 8 6 3 4 3 3 4 6 4 5 5
43 42 41 41 40 36 34 33 31 29 28 27 26 23 20 20 17 15 14 13 10 10 8 7 4 2 4 6 6 5 6 7
44 44 45 44 44 42 37 35 33 31 29 28 26 24 25 22 17 17 17 14 13 13 11 9 7 4 4 4 7 6 7 7
43 46 47 47 43 42 38 34 34 32 29 29 30 23 27 25 21 18 17 15 15 14 14 10 6 4 1 3 6 7 5 8
47 45 43 44 40 40 37 34 35 32 30 31 33 26 27 23 20 20 19 20 18 16 13 7 4 2 3 3 5 2 8 10
41 41 42 42 39 40 39 41 34 34 32 26 31 31 29 24 23 23 23 21 21 16 11 8 4 1 3 3 4 7 4 8
39 41 42 44 42 40 31 31 35 34 30 29 31 33 30 26 26 26 24 24 20 16 14 11 5 3 2 4 3 2 3 5
42 45 48 46 39 33 27 28 25 30 33 36 36 33 30 30 30 28 27 24 20 16 15 14 10 5 4 3 2 2 4 4
46 45 46 46 44 39 40 41 31 30 36 39 35 32 32 32 33 30 28 23 20 17 15 13 11 11 7 5 3 3 2 4
46 42 42 44 47 43 40 36 32 30 34 38 35 32 32 34 34 31 29 25 22 20 17 13 11 10 8 5 3 4 4 3
39 41 43 42 46 43 43 40 35 33 34 39 38 35 31 33 35 33 30 28 24 22 17 13 11 10 8 8 8 4 5 4
39 41 41 40 44 43 44 42 42 41 41 39 38 40 37 37 35 33 32 29 25 21 17 14 13 10 9 7 6 4 2 3
41 43 40 41 45 42 41 39 40 38 43 42 42 44 43 38 35 33 32 29 25 21 17 14 13 11 10 7 5 2 1 2
Wind_Direction
169 171 174 174 173 172 168 165 165 163 163 163 165 167 167 166 169 174 183 192 190 139 76 53 42 39 28 23 18 28 21 19
174 176 177 176 176 176 175 172 170 168 169 169 170 172 173 176 181 186 200 211 222 230 326 13 25 30 21 23 35 41 22 20
179 180 180 179 180 179 180 180 178 176 176 177 178 178 182 185 188 194 202 233 255 264 272 333 47 47 26 15 25 20 13 5
184 184 182 182 183 184 184 184 186 187 186 185 186 185 185 190 191 197 234 250 254 257 245 231 67 49 67 10 16 7 6 357
189 188 187 186 188 188 189 190 192 194 196 196 195 194 190 193 204 218 232 246 243 223 222 242 289 341 355 12 1 347 348 345
191 193 191 192 195 194 194 195 197 199 201 204 205 201 205 210 216 225 228 228 232 229 240 253 280 297 304 341 324 329 325 323
195 195 197 197 200 200 201 201 203 206 205 207 211 210 215 217 215 224 229 229 231 236 239 261 230 274 286 280 298 336 351 344
197 198 202 201 204 204 207 208 209 210 210 210 209 210 218 213 219 224 234 227 241 214 201 230 248 258 280 299 311 343 7 31
200 199 201 204 206 208 209 210 211 212 212 209 213 219 224 220 208 203 202 197 192 200 196 217 199 101 113 99 74 46 29 12
199 199 199 201 206 206 210 213 213 211 210 212 213 225 218 209 201 194 195 192 202 202 194 182 162 178 124 73 45 354 358 43
197 198 201 200 203 203 207 211 213 211 213 215 217 222 208 212 214 211 198 197 188 191 168 182 184 197 102 18 350 343 39 77
198 196 198 198 201 201 203 202 209 211 216 219 218 217 208 207 210 204 196 188 186 175 183 181 185 227 277 328 341 128 87 71
193 191 195 189 191 191 193 196 198 203 208 215 208 210 209 206 199 195 195 195 185 185 184 175 137 235 336 32 53 144 109 49
194 193 190 192 191 193 196 195 199 202 205 207 206 207 207 200 197 191 189 185 184 184 194 162 134 93 98 75 15 280 247 344
195 195 194 194 193 189 189 191 198 207 207 200 201 207 205 197 194 192 188 194 188 188 186 182 154 107 122 149 109 224 324 235
199 196 194 194 193 188 187 186 188 199 191 195 193 198 198 192 191 195 192 191 191 185 179 177 171 160 141 136 140 151 167 314
199 195 193 191 189 189 188 189 194 193 185 189 188 192 198 193 194 193 188 191 185 182 174 171 171 171 183 173 175 178 179 172
193 192 194 192 188 189 190 187 184 176 180 184 187 188 192 189 190 190 186 185 181 178 175 175 173 175 181 184 183 182 196 193
189 192 194 191 190 192 192 189 185 184 181 178 178 182 184 185 188 186 181 181 181 180 176 175 174 183 181 187 186 200 241 276
189 193 193 189 190 193 192 190 187 187 184 182 182 184 186 185 187 187 182 182 183 181 180 179 179 178 181 187 190 206 187 312